Powrót do katalogu

COSMOS 2251 DEB

AktywnyLEO
NORAD 35979·DEBRIS·🇷🇺 Russia

Wystrzelony Jun 16, 1993 z Plesetsk Cosmodrome

Loading…

Następne Przeloty (najbliższe 24 godziny)

TLE

NieaktualneSource: Space-Track

Epoka: Sep 4, 2026, 19:03 UTC

1 35979U 93036AVV 26247.79389509  .00002474  00000-0  34489-3 0  9993
2 35979  74.0067  76.6320 0057887 143.8202 228.3035 14.77161061925595

Śledź COSMOS 2251 DEB w czasie rzeczywistym z AllMySat

Download on the App Store